Cloquet, MN

2:39 AM CDT on July 25, 2016 (GMT -0500)
Cloquet Carlton County

Weather History for KCOQ - December, 2012

Change the Weather History Date:

Monday, December 31, 2012

  Actual Average Record
Temperature  
Mean Temperature 6 °F -  
Max Temperature 17 °F 18 °F 35 °F (2004)
Min Temperature -5 °F 4 °F -23 °F (2013)
Degree Days  
Heating Degree Days 59    
Moisture  
Dew Point -5 °F    
Average Humidity 64    
Maximum Humidity 79    
Minimum Humidity 48    
Precipitation  
Precipitation 0.00 in - - ()
Sea Level Pressure  
Sea Level Pressure 30.07 in    
Wind  
Wind Speed 12 mph (NW)    
Max Wind Speed 20 mph    
Max Gust Speed 28 mph    
Visibility 10 miles    
Events Snow    
Averages and records for this station are not official NWS values.
T = Trace of Precipitation, MM = Missing Value Source: NWS Daily Summary

Daily Weather History Graph

Daily Weather History Graph

Search for Another Location

Airport or City:

Trip Planner

Search our weather history database for the weather conditions in past years. The results will help you decide how hot, cold, wet, or windy it might be!

Date:

Astronomy

Dec. 31, 2012 Rise Set
Actual Time 7:54 AM CST 4:32 PM CST
Civil Twilight 7:19 AM CST 5:07 PM CST
Nautical Twilight 6:41 AM CST 5:45 PM CST
Astronomical Twilight 6:04 AM CST 6:22 PM CST
Moon 8:17 PM CST (12/31) 9:24 AM CST (12/31)
Length of Visible Light 9h 47m
Length of Day
8h 37m
Waning Gibbous, 90% of the Moon is Illuminated
Dec 31
Waning Gibbous
Jan 4
Last Quarter
Jan 11
New
Jan 18
First Quarter
Jan 26
Full

Hourly Weather History & Observations

Time (CST) Temp. Windchill Dew Point Humidity Pressure Visibility Wind Dir Wind Speed Gust Speed Precip Events Conditions
12:15 AM 17.6 °F 3.2 °F 12.2 °F 79% 29.85 in 10.0 mi NW 15.0 mph 26.5 mph N/A   Overcast
12:36 AM 17.6 °F 2.7 °F 10.4 °F 73% 29.85 in 10.0 mi NW 16.1 mph 25.3 mph N/A Snow Light Snow
12:56 AM 17.6 °F 1.7 °F 10.4 °F 73% 29.86 in 10.0 mi WNW 18.4 mph 25.3 mph N/A Snow Light Snow
1:16 AM 17.6 °F 1.3 °F 8.6 °F 68% 29.87 in 10.0 mi NW 19.6 mph 27.6 mph N/A Snow Light Snow
1:36 AM 15.8 °F -0.2 °F 8.6 °F 73% 29.89 in 7.0 mi NW 17.3 mph 23.0 mph N/A Snow Light Snow
1:56 AM 14.0 °F -2.5 °F 3.2 °F 62% 29.90 in 10.0 mi NW 17.3 mph 23.0 mph N/A   Mostly Cloudy
2:16 AM 12.2 °F -5.3 °F 3.2 °F 67% 29.91 in 10.0 mi NW 18.4 mph 23.0 mph N/A   Scattered Clouds
2:36 AM 12.2 °F -3.1 °F 3.2 °F 67% 29.93 in 10.0 mi NW 13.8 mph 18.4 mph N/A   Mostly Cloudy
2:55 AM 12.2 °F -2.5 °F 3.2 °F 67% 29.94 in 10.0 mi NW 12.7 mph 18.4 mph N/A   Overcast
3:16 AM 12.2 °F -3.1 °F 3.2 °F 67% 29.95 in 10.0 mi WNW 13.8 mph 21.9 mph N/A Snow Light Snow
3:36 AM 12.2 °F -3.1 °F 3.2 °F 67% 29.97 in 10.0 mi WNW 13.8 mph 17.3 mph N/A   Overcast
3:55 AM 12.2 °F -4.8 °F 1.4 °F 62% 29.97 in 10.0 mi West 17.3 mph 24.2 mph N/A   Overcast
4:16 AM 12.2 °F -3.7 °F 1.4 °F 62% 29.97 in 10.0 mi NW 15.0 mph 20.7 mph N/A   Overcast
4:36 AM 10.4 °F -6.0 °F 1.4 °F 67% 29.97 in 10.0 mi WNW 15.0 mph 19.6 mph N/A   Overcast
4:55 AM 10.4 °F -4.8 °F 1.4 °F 67% 29.98 in 10.0 mi WNW 12.7 mph 20.7 mph N/A   Mostly Cloudy
5:16 AM 10.4 °F -3.3 °F 1.4 °F 67% 29.98 in 10.0 mi WNW 10.4 mph 19.6 mph N/A   Scattered Clouds
5:36 AM 10.4 °F -4.1 °F 1.4 °F 67% 30.00 in 10.0 mi WNW 11.5 mph 16.1 mph N/A   Clear
5:56 AM 8.6 °F -7.0 °F -0.4 °F 67% 30.01 in 10.0 mi WNW 12.7 mph - N/A   Clear
6:15 AM 8.6 °F -8.3 °F -0.4 °F 67% 30.01 in 10.0 mi WNW 15.0 mph 21.9 mph N/A   Scattered Clouds
6:36 AM 6.8 °F -11.3 °F -2.2 °F 67% 30.02 in 10.0 mi NW 16.1 mph 21.9 mph N/A   Scattered Clouds
6:56 AM 5.0 °F -13.0 °F -4.0 °F 66% 30.03 in 10.0 mi NW 15.0 mph 18.4 mph N/A   Clear
7:15 AM 3.2 °F -15.9 °F -5.8 °F 66% 30.04 in 10.0 mi NW 16.1 mph 23.0 mph N/A   Clear
7:36 AM 1.4 °F -16.1 °F -5.8 °F 72% 30.05 in 10.0 mi NW 12.7 mph 24.2 mph N/A   Clear
7:56 AM 1.4 °F -15.3 °F -7.6 °F 66% 30.06 in 10.0 mi NW 11.5 mph 20.7 mph N/A   Clear
8:15 AM 1.4 °F -16.1 °F -7.6 °F 66% 30.07 in 10.0 mi NW 12.7 mph 17.3 mph N/A   Clear
8:36 AM -0.4 °F -18.4 °F -7.6 °F 72% 30.07 in 10.0 mi NW 12.7 mph 17.3 mph N/A   Clear
8:56 AM -0.4 °F -17.6 °F -7.6 °F 72% 30.08 in 10.0 mi NW 11.5 mph - N/A   Clear
9:16 AM -0.4 °F -17.6 °F -7.6 °F 72% 30.09 in 10.0 mi WNW 11.5 mph 20.7 mph N/A   Clear
9:36 AM -0.4 °F -12.0 °F -7.6 °F 72% 30.10 in 10.0 mi NW 5.8 mph - N/A   Clear
9:56 AM -0.4 °F -15.7 °F -9.4 °F 66% 30.11 in 10.0 mi NW 9.2 mph - N/A   Clear
10:16 AM 1.4 °F -14.5 °F -9.4 °F 61% 30.11 in 10.0 mi NW 10.4 mph - N/A   Clear
10:36 AM 1.4 °F -15.3 °F -9.4 °F 61% 30.11 in 10.0 mi WNW 11.5 mph - N/A   Clear
10:56 AM 1.4 °F -15.3 °F -9.4 °F 61% 30.12 in 10.0 mi NW 11.5 mph - N/A   Clear
11:16 AM 3.2 °F -9.1 °F -9.4 °F 56% 30.13 in 10.0 mi WNW 6.9 mph - N/A   Clear
11:36 AM 3.2 °F -10.3 °F -9.4 °F 56% 30.13 in 10.0 mi WNW 8.1 mph - N/A   Clear
11:56 AM 3.2 °F -13.1 °F -9.4 °F 56% 30.12 in 10.0 mi NW 11.5 mph 16.1 mph N/A   Clear
12:16 PM 5.0 °F -10.8 °F -9.4 °F 52% 30.11 in 10.0 mi NW 11.5 mph 19.6 mph N/A   Clear
12:36 PM 5.0 °F -10.8 °F -9.4 °F 52% 30.10 in 10.0 mi NNW 11.5 mph 18.4 mph N/A   Clear
12:56 PM 6.8 °F -7.8 °F -7.6 °F 52% 30.10 in 10.0 mi NW 10.4 mph - N/A   Clear
1:16 PM 6.8 °F -9.3 °F -7.6 °F 52% 30.09 in 10.0 mi NNW 12.7 mph - N/A   Clear
1:36 PM 6.8 °F -7.8 °F -7.6 °F 52% 30.09 in 10.0 mi NNW 10.4 mph 16.1 mph N/A   Clear
1:56 PM 6.8 °F -6.9 °F -7.6 °F 52% 30.09 in 10.0 mi WNW 9.2 mph - N/A   Clear
2:16 PM 8.6 °F -2.6 °F -7.6 °F 48% 30.09 in 10.0 mi NNW 6.9 mph 19.6 mph N/A   Clear
2:36 PM 8.6 °F -2.6 °F -7.6 °F 48% 30.10 in 10.0 mi NW 6.9 mph - N/A   Clear
2:55 PM 8.6 °F -3.7 °F -7.6 °F 48% 30.11 in 10.0 mi NW 8.1 mph 17.3 mph N/A   Clear
3:16 PM 8.6 °F -3.7 °F -7.6 °F 48% 30.11 in 10.0 mi NW 8.1 mph - N/A   Clear
3:36 PM 8.6 °F -3.7 °F -7.6 °F 48% 30.12 in 10.0 mi NW 8.1 mph - N/A   Clear
3:55 PM 8.6 °F 0.1 °F -7.6 °F 48% 30.12 in 10.0 mi NW 4.6 mph - N/A   Clear
4:36 PM 6.8 °F -2.0 °F -7.6 °F 52% 30.14 in 10.0 mi NW 4.6 mph - N/A   Clear
4:55 PM 5.0 °F -4.1 °F -7.6 °F 56% 30.14 in 10.0 mi NW 4.6 mph - N/A   Clear
5:16 PM 3.2 °F -6.2 °F -7.6 °F 61% 30.14 in 10.0 mi NW 4.6 mph - N/A   Clear
5:36 PM 3.2 °F -4.2 °F -7.6 °F 61% 30.15 in 10.0 mi WNW 3.5 mph - N/A   Clear
5:55 PM 3.2 °F -4.2 °F -7.6 °F 61% 30.15 in 10.0 mi WNW 3.5 mph - N/A   Clear
6:16 PM 1.4 °F -6.2 °F -9.4 °F 61% 30.16 in 10.0 mi WNW 3.5 mph - N/A   Clear
6:35 PM 1.4 °F -6.2 °F -7.6 °F 66% 30.16 in 10.0 mi WNW 3.5 mph - N/A   Clear
7:16 PM -0.4 °F -12.0 °F -9.4 °F 66% 30.17 in 10.0 mi West 5.8 mph - N/A   Clear
7:36 PM -0.4 °F -10.4 °F -9.4 °F 66% 30.17 in 10.0 mi West 4.6 mph - N/A   Clear
7:56 PM -0.4 °F -8.3 °F -9.4 °F 66% 30.17 in 10.0 mi West 3.5 mph - N/A   Clear
8:16 PM -0.4 °F -10.4 °F -7.6 °F 72% 30.17 in 10.0 mi WNW 4.6 mph - N/A   Clear
8:36 PM -2.2 °F -12.5 °F -9.4 °F 71% 30.17 in 10.0 mi WNW 4.6 mph - N/A   Clear
8:56 PM -2.2 °F -10.4 °F -9.4 °F 71% 30.17 in 10.0 mi WNW 3.5 mph - N/A   Clear
9:16 PM -2.2 °F -14.2 °F -9.4 °F 71% 30.17 in 10.0 mi WNW 5.8 mph - N/A   Clear
9:36 PM -2.2 °F -14.2 °F -9.4 °F 71% 30.17 in 10.0 mi WNW 5.8 mph - N/A   Clear
9:56 PM -4.0 °F -17.8 °F -9.4 °F 78% 30.17 in 10.0 mi WNW 6.9 mph - N/A   Clear
10:16 PM -4.0 °F -16.3 °F -9.4 °F 78% 30.17 in 10.0 mi WNW 5.8 mph - N/A   Clear
10:36 PM -4.0 °F -17.8 °F -9.4 °F 78% 30.17 in 10.0 mi WNW 6.9 mph - N/A   Clear
10:56 PM -5.8 °F -19.9 °F -11.2 °F 77% 30.17 in 10.0 mi West 6.9 mph - N/A   Clear
11:15 PM -5.8 °F -21.2 °F -11.2 °F 77% 30.17 in 10.0 mi WNW 8.1 mph - N/A   Clear
11:36 PM -5.8 °F -19.9 °F -11.2 °F 77% 30.17 in 10.0 mi WNW 6.9 mph - N/A   Clear
11:56 PM -5.8 °F -18.4 °F -11.2 °F 77% 30.17 in 10.0 mi WNW 5.8 mph - N/A   Clear